x

La Perouse Bank (46206) Wave Buoy

9:00 - Wed 27th Aug 2014 All times are PDT. -7 hours from GMT.

  • Sig Wave height 2.6ft
  • Peak Period 17s
  • Wind
    11mph, 13mph gusts
  • Sea Temp 59°f
  • Aire Temp 60°f
  • Sea Pressure 1018.8mb
  • La Perouse Bank
  • La Perouse Bank

More Historic Weather Station data

Upgrade to MSW Pro to gain access to the past 30 days of data for over 8000 Wavebouys and Weather Stations around the globe.

Join Pro

Comparision Forecast

View Surf forecast
   
mié 08/27 9:00 2.5ft 17s 11 13 mph 1018.8mb 59f 60f
8:00 2.5ft 17s 11 13 mph 1018.5mb 59f 60f
7:00 3ft 17s 13
mph
1018.5mb 59f 61f
6:00 3ft 17s 13 16 mph 1018.8mb 59f 60f
5:00 3.5ft 17s 11 13 mph 1018.8mb 57f 60f
4:00 3.5ft 17s 16 20 mph 1018.8mb 56f 60f
3:00 3.5ft 17s 16 18 mph 1018.9mb 56f 60f
2:00 3.5ft 8s 13 16 mph 1019mb 56f 60f
1:00 3.5ft 17s 16 18 mph 1019mb 56f 60f
12:00 3.5ft 14s 13 16 mph 1019.1mb 56f 60f
11:00 3.5ft 5s 13 16 mph 1019.2mb 56f 59f
10:00 3.5ft 5s 13
mph
1019mb 56f 59f
9:00 3.5ft 4s 13 16 mph 1018.6mb 55f 59f
8:00 3.5ft 14s 13
mph
1018.5mb 55f 59f
7:00 4ft 5s 16 18 mph 1018.2mb 56f 58f
6:00 4ft 9s 13 18 mph 1017.8mb 56f 58f
5:00 4ft 9s 13 18 mph 1017.3mb 55f 58f
4:00 4.5ft 15s 16 18 mph 1016.9mb 55f 59f
3:00 4ft 5s 16 18 mph 1016.6mb 55f 59f
2:00 4.5ft 18s 16 20 mph 1016.8mb 56f 59f
1:00 4.5ft 9s 20 22 mph 1016.5mb 58f 59f
12:00 4ft 9s 20 25 mph 1016.7mb 58f 58f
mar 08/26 11:00 3.5ft 8s 18 22 mph 1016.9mb 58f 59f
10:00 3.5ft 9s 18 20 mph 1017mb 58f 60f
9:00 3.5ft 8s 18 22 mph 1017.1mb 58f 60f
8:00 3.5ft 8s 16 18 mph 1017.1mb 58f 60f
7:00 3.5ft 9s 16 20 mph 1017.2mb 59f 60f
6:00 3ft 14s 16 18 mph 1017.2mb 57f 59f
5:00 3ft 9s 16 20 mph 1017.7mb 57f 59f
4:00 3ft 8s 13 16 mph 1018.3mb 57f 59f
3:00 3ft 8s 13 18 mph 1018.7mb 58f 58f
2:00 3ft 7s 9 11 mph 1018.8mb 57f 58f
1:00 3.5ft 8s 7 9 mph 1019mb 57f 58f
12:00 3.5ft 9s 7 9 mph 1019.2mb 57f 58f
11:00 3.5ft 8s 4
mph
1019.1mb 56f 57f
10:00 3.5ft 15s 4 7 mph 1019mb 56f 57f
9:00 3.5ft 8s 7 9 mph 1018.9mb 55f 56f
8:00 3.5ft 15s 7 9 mph 1018.6mb 55f 57f
7:00 3.5ft 7s 11 13 mph 1018.2mb 55f 57f
6:00 3.5ft 6s 13 16 mph 1017.4mb 55f 57f
5:00 3.5ft 6s 13 16 mph 1017.2mb 55f 58f
4:00 4ft 6s 13 18 mph 1017mb 56f 58f
3:00 4ft 6s 18 20 mph 1016.8mb 56f 58f
2:00 4.5ft 6s 16 20 mph 1016.9mb 56f 58f
1:00 4.5ft 6s 18 20 mph 1016.7mb 56f 58f
12:00 4.5ft 6s 18 22 mph 1016.5mb 56f 58f
lun 08/25 11:00 4.5ft 6s 18 20 mph 1016.5mb 57f 59f
10:00 4.5ft 6s 11 13 mph 1016.4mb 57f 60f
9:00 3.5ft 6s 16 18 mph 1016.3mb 58f 60f
8:00 3ft 6s 16 18 mph 1016.1mb 58f 59f
7:00 3ft 16s 16 18 mph 1016.3mb 58f 60f
6:00 3ft 7s 11 13 mph 1016.6mb 58f 60f
5:00 3ft 16s 13 16 mph 1016.7mb 57f 60f
4:00 3ft 7s 13
mph
1016.9mb 57f 60f
3:00 3.5ft 7s 11 13 mph 1017.1mb 57f 60f
2:00 3.5ft 7s 11
mph
1017.2mb 56f 59f
1:00 3.5ft 7s 4 7 mph 1017.6mb 58f 58f
12:00 4.5ft 7s  -  2 mph 1017.8mb 56f 59f
11:00 4.5ft 8s 7
mph
1017.6mb 55f 55f
10:00 4.5ft 8s 7
mph
1017.8mb 54f 54f
9:00 4.5ft 7s 4
mph
1017.9mb 54f 53f
8:00 4.5ft 8s 4
mph
1017.2mb 54f 53f
7:00 4.5ft 7s 2
mph
1017.3mb 54f 53f
6:00 4.5ft 8s 4 7 mph 1016.9mb 54f 53f
5:00 4.5ft 8s 2 4 mph 1016.7mb 55f 54f
4:00 4.5ft 8s 2 4 mph 1016.3mb 56f 56f
3:00 4.5ft 8s 2 4 mph 1016.2mb 57f 56f
2:00 5ft 8s  -  2 mph 1016.3mb 57f 57f
1:00 5ft 8s 2
mph
1016.1mb 57f 58f
12:00 5ft 8s 4
mph
1015.9mb 57f 58f
dom 08/24 11:00 5ft 8s 9 11 mph 1015.8mb 57f 58f
10:00 4.5ft 8s 11 13 mph 1015.8mb 57f 58f
9:00 4ft 8s 11 13 mph 1015.7mb 57f 58f
8:00 4ft 7s 9 11 mph 1015.5mb 57f 58f
7:00 3.5ft 7s 9
mph
1015.6mb 58f 56f
6:00 4ft 8s 9
mph
1015.5mb 58f 56f
5:00 3.5ft 7s 11 13 mph 1015.7mb 58f 55f
4:00 4ft 6s 7 11 mph 1015.9mb 57f 55f
3:00 3.5ft 7s 4 7 mph 1015.9mb 56f 55f
2:00 3.5ft 7s 7 9 mph 1016mb 56f 55f
1:00 3.5ft 6s 7 9 mph 1016mb 57f 55f
12:00 3.5ft 6s 9
mph
1015.9mb 57f 55f
11:00 3.5ft 6s 11 13 mph 1015.6mb 57f 55f
10:00 3.5ft 6s 11 13 mph 1015.4mb 57f 55f
9:00 3.5ft 7s 4 7 mph 1015.6mb 56f 55f
8:00 3.5ft 6s 4 7 mph 1015.6mb 57f 55f
7:00 3.5ft 6s 9 13 mph 1015.3mb 57f 56f
6:00 3.5ft 6s 11 13 mph 1015.1mb 57f 56f